Weather History for KDRT - August, 2013

Change the Weather History Date:

Saturday, August 17, 2013

  Actual Average Record
Temperature  
Mean Temperature 90 °F 86 °F  
Max Temperature 103 °F 98 °F 109 °F (1969)
Min Temperature 76 °F 76 °F 64 °F (1908)
Degree Days  
Heating Degree Days 0 0  
Month to date heating degree days 0 0  
Since 1 June heating degree days 0 0  
Since 1 July heating degree days 0 0  
Cooling Degree Days 25 22  
Month to date cooling degree days 440 374  
Year to date cooling degree days 2632 2352  
Since 1 June cooling degree days 1726 1593  
Growing Degree Days 40 (Base 50)    
Moisture  
Dew Point 58 °F    
Average Humidity 38    
Maximum Humidity 58    
Minimum Humidity 18    
Precipitation  
Precipitation 0.00 in 0.08 in 1.02 in (2008)
Month to date precipitation T 0.98  
Year to date precipitation 7.75 12.31  
Sea Level Pressure  
Sea Level Pressure 29.91 in    
Wind  
Wind Speed 6 mph (ESE)    
Max Wind Speed 15 mph    
Max Gust Speed 20 mph    
Visibility 10 miles    
Events      
T = Trace of Precipitation, MM = Missing Value Source: NWS Daily Summary

Daily Weather History Graph

Daily Weather History Graph

Search for Another Location

Airport or City:

Trip Planner

Search our weather history database for the weather conditions in past years. The results will help you decide how hot, cold, wet, or windy it might be!

Date:

Astronomy

Aug. 17, 2013 Rise Set
Actual Time 7:13 AM CDT 8:21 PM CDT
Civil Twilight 6:48 AM CDT 8:46 PM CDT
Nautical Twilight 6:18 AM CDT 9:15 PM CDT
Astronomical Twilight 5:48 AM CDT 9:46 PM CDT
Moon 5:31 PM CDT (8/17) 3:26 AM CDT (8/17)
Length of Visible Light 13h 58m
Length of Day
13h 08m
Waxing Gibbous, 84% of the Moon is Illuminated
Aug 17
Waxing Gibbous
Aug 20
Full
Aug 28
Last Quarter
Sep 5
New
Sep 12
First Quarter

Hourly Weather History & Observations

Time (CDT) Temp. Heat Index Dew Point Humidity Pressure Visibility Wind Dir Wind Speed Gust Speed Precip Events Conditions
12:53 AM 87.1 °F 86.1 °F 57.9 °F 37% 29.91 in 10.0 mi ENE 9.2 mph - N/A   Clear
1:53 AM 84.9 °F 83.6 °F 55.0 °F 36% 29.92 in 10.0 mi ENE 10.4 mph - N/A   Clear
2:53 AM 82.9 °F 82.0 °F 55.0 °F 38% 29.94 in 10.0 mi East 4.6 mph - N/A   Clear
3:53 AM 82.0 °F 81.7 °F 57.0 °F 42% 29.93 in 10.0 mi ESE 8.1 mph - N/A   Clear
4:53 AM 81.0 °F 81.3 °F 59.0 °F 47% 29.92 in 10.0 mi ENE 5.8 mph - N/A   Clear
5:53 AM 79.0 °F - 60.1 °F 52% 29.92 in 10.0 mi Calm Calm - N/A   Clear
6:53 AM 78.1 °F - 61.0 °F 56% 29.94 in 10.0 mi Calm Calm - N/A   Clear
7:53 AM 78.1 °F - 61.0 °F 56% 29.96 in 10.0 mi Calm Calm - N/A   Clear
8:53 AM 81.0 °F 82.7 °F 64.9 °F 58% 29.98 in 10.0 mi East 4.6 mph - N/A   Clear
9:53 AM 84.9 °F 87.6 °F 66.9 °F 55% 29.98 in 10.0 mi ESE 6.9 mph - N/A   Clear
10:53 AM 88.0 °F 90.7 °F 66.9 °F 49% 29.98 in 10.0 mi SSE 3.5 mph - N/A   Clear
11:53 AM 90.0 °F 93.6 °F 68.0 °F 48% 29.97 in 10.0 mi Calm Calm - N/A   Clear
12:53 PM 93.9 °F 97.0 °F 66.0 °F 40% 29.95 in 10.0 mi Calm Calm - N/A   Clear
1:53 PM 97.0 °F 97.4 °F 61.0 °F 30% 29.92 in 10.0 mi South 4.6 mph - N/A   Clear
2:53 PM 99.0 °F 98.1 °F 57.9 °F 25% 29.90 in 10.0 mi ESE 9.2 mph - N/A   Partly Cloudy
3:53 PM 100.9 °F 100.0 °F 57.0 °F 23% 29.86 in 10.0 mi Variable 3.5 mph - N/A   Partly Cloudy
4:53 PM 100.9 °F 100.0 °F 57.0 °F 23% 29.83 in 10.0 mi South 8.1 mph - N/A   Scattered Clouds
5:53 PM 102.0 °F - 52.0 °F 19% 29.82 in 10.0 mi Calm Calm - N/A   Partly Cloudy
6:53 PM 100.9 °F - 52.0 °F 19% 29.81 in 10.0 mi ESE 5.8 mph - N/A   Partly Cloudy
7:53 PM 100.0 °F - 51.1 °F 19% 29.81 in 10.0 mi ESE 6.9 mph - N/A   Clear
8:53 PM 96.1 °F 93.8 °F 54.0 °F 24% 29.84 in 10.0 mi SE 9.2 mph - N/A   Partly Cloudy
9:53 PM 93.9 °F 91.4 °F 53.1 °F 25% 29.86 in 10.0 mi ESE 9.2 mph - N/A   Clear
10:53 PM 91.9 °F 89.5 °F 54.0 °F 27% 29.89 in 10.0 mi East 13.8 mph 19.6 mph N/A   Clear
11:53 PM 90.0 °F 87.5 °F 53.1 °F 28% 29.91 in 10.0 mi ESE 9.2 mph - N/A   Clear